Simultaneous Nadir Overpasses (SNOs) Predictions

Prediction of SNOs between LANDSAT-8 and NOAA-19 Satellite Orbit:

Table of predicted SNOs for the next 14.0 days since TLE Epoch: 1/31/2015
Index Date (LANDSAT-8) Time (LANDSAT-8) Lat,Lon (LANDSAT-8) SZA (LANDSAT-8 ) Date (NOAA-19) Time (NOAA-19) Lat,Lon (NOAA-19) SZA (NOAA-19 ) Distance(km) Time Diff (sec)
1 02/02/2015 07:46:58 72.73, 63.74 89.53 02/02/2015 07:46:45 72.71, 63.81 89.51 2.93 13
2 02/02/2015 08:36:27 -72.66,-128.75 90.55 02/02/2015 08:37:39 -72.64,-128.77 90.58 2.67 72
3 02/04/2015 12:31:14 72.79, -7.23 88.94 02/04/2015 12:30:18 72.76, -7.16 88.92 3.31 56
4 02/04/2015 13:20:43 -72.72, 160.28 91.14 02/04/2015 13:21:12 -72.70, 160.25 91.16 2.51 29
5 02/06/2015 18:04:59 -72.77, 89.30 91.76 02/06/2015 18:04:45 -72.77, 89.25 91.76 1.65 14
6 02/06/2015 18:54:34 72.25,-104.02 87.73 02/06/2015 18:55:43 72.28,-102.50 87.73 51.65 69
7 02/08/2015 22:49:15 -72.81, 18.30 92.42 02/08/2015 22:48:17 -72.80, 18.34 92.42 1.71 58
8 02/08/2015 23:38:42 72.71,-174.24 87.49 02/08/2015 23:39:23 72.70,-174.24 87.48 0.92 41
9 02/11/2015 04:22:58 72.74, 114.74 86.80 02/11/2015 04:22:55 72.74, 114.84 86.81 3.32 3
10 02/11/2015 05:12:32 -72.41, -78.24 93.53 02/11/2015 05:13:43 -72.39, -77.15 93.58 36.92 71
11 02/13/2015 09:07:13 72.80, 43.79 86.14 02/13/2015 09:06:28 72.84, 43.78 86.18 3.52 45
12 02/13/2015 09:56:42 -72.74,-148.69 93.94 02/13/2015 09:57:21 -72.73,-148.72 93.95 1.91 39




NCC Satellite Simultaneous Nadir Overpasses (SNOs) Prediction Service
